Date,TemperatureHighF,TemperatureAvgF,TemperatureLowF,DewpointHighF,DewpointAvgF,DewpointLowF,HumidityHigh,HumidityAvg,HumidityLow,PressureMaxIn,PressureMinIn,WindSpeedMaxMPH,WindSpeedAvgMPH,GustSpeedMaxMPH,PrecipitationSumIn
2013-8-1,78,66,57,59,46,40,89,50,31,30.23,30.10,23,3,31,0.04
2013-8-2,90,70,54,58,52,47,92,60,26,30.17,30.00,19,4,25,0.00
2013-8-3,90,75,62,54,50,46,71,45,24,30.19,30.04,15,4,21,0.01
2013-8-4,94,72,57,56,50,45,70,49,20,30.20,30.06,28,4,35,0.00
2013-8-5,89,72,60,52,49,45,71,48,23,30.20,30.04,17,4,24,0.00
2013-8-6,86,68,56,53,48,42,74,51,24,30.13,30.04,20,2,23,0.00
2013-8-7,91,70,56,50,46,38,68,46,22,30.11,29.96,16,2,24,0.00
2013-8-8,89,69,58,50,45,40,60,45,20,30.13,29.97,19,2,28,0.00
2013-8-9,94,70,55,47,44,38,68,43,18,30.19,30.05,22,3,28,0.00
2013-8-10,84,68,55,46,42,38,66,41,21,30.24,30.13,27,6,39,0.00
2013-8-11,91,68,48,47,42,37,78,45,17,30.30,30.08,17,2,27,0.00
2013-8-12,90,69,53,53,42,38,66,41,20,30.20,30.07,24,3,33,0.09
2013-8-13,86,67,51,48,44,37,78,48,22,30.24,30.10,30,4,43,0.00
2013-8-14,90,70,51,56,40,34,64,37,16,30.24,30.07,17,2,25,0.03
2013-8-15,93,71,51,42,36,30,54,31,14,30.22,30.06,15,2,19,0.00
2013-8-16,98,74,52,39,33,28,45,25,10,30.22,30.05,12,2,16,0.00
2013-8-17,95,74,55,46,37,29,40,27,14,30.21,30.03,24,4,27,0.00
2013-8-18,95,74,60,59,45,40,67,38,18,30.20,30.03,19,3,33,0.18
2013-8-19,101,75,56,52,46,38,69,41,14,30.22,29.98,11,2,16,0.00
2013-8-20,90,73,60,55,47,41,77,42,24,30.16,30.01,30,3,40,0.02
2013-8-21,92,73,54,54,50,40,88,51,22,30.19,30.02,12,3,18,0.00
2013-8-22,92,75,63,53,48,43,57,40,23,30.22,30.01,16,2,21,0.00
2013-8-23,89,70,60,58,52,49,77,54,29,30.11,29.95,39,3,49,0.01
2013-8-24,87,71,57,54,48,38,80,50,19,30.14,30.02,18,4,26,0.00
2013-8-25,75,65,59,60,55,48,92,71,45,30.24,30.13,17,2,23,0.04
2013-8-26,81,68,58,60,56,52,93,69,38,30.27,30.13,16,2,23,0.00
2013-8-27,88,72,56,58,53,49,86,56,27,30.23,30.04,19,4,27,0.00
2013-8-28,92,75,57,55,49,42,78,45,18,30.18,30.03,17,3,22,0.00
2013-8-29,96,77,59,52,47,41,64,38,16,30.24,30.07,15,2,18,0.00
2013-8-30,91,76,65,54,50,46,55,42,25,30.24,30.08,18,3,26,0.00
2013-8-31,94,74,65,58,52,47,73,48,22,30.17,30.00,18,3,24,0.02